Content
SEND FEEDBACK

Daily
Averages
Monthly
Summary
United States of America

SEADRIFT, TEXAS


Home > North America > United States > Texas
Elevation: 2 feet     Latitude: 28 26N     Longitude: 096 25W

WEATHER
 
SELECT A DAY
Number of Records: 196,027;   Date Range: 1/1/95 - 7/29/14
 
SHARE

PRINT THIS DATA

[ ← Previous Day ]
WEATHER ALMANAC - JANUARY 31, 2013
[ Next Day → ]
[ °C ]   °F
Weather ElementAverageHighLow
Temperature55.5 °F64.9 °F (12:53 pm)43 °F (7:53 am)
Dewpoint36.2 °F45 °F (11:53 pm)30 °F (9:53 am)
Humidity51.4 %74 % (7:53 am)29 % (12:53 pm)
Barometer30.28 in30.34 in (10:53 am)30.22 in (4:53 am)
Wind Speed7.3 mph13.8 mph (1:53 pm)
Weather ElementAverage
Visibility10 mi
Wind DirectionSSE (144.8 °)

Weather ElementTotal
Precipitation---
Heating Degree Days11.1 (Base 65)
Growing Degree Days4 (Base 50)
Averaged from 23 records on January 31, 2013
WEATHER CONDITIONS BREAKOUT
WIND DIRECTION BREAKOUT
WEATHER BY HOUR - JANUARY 31, 2013
[ °C ]   °F
Local TimeTemperatureDewpointHumidityBarometerVisibilityWind DirectionWind SpeedGust SpeedPrecipitationEventsConditions
1:53 AM44.1 °F32.0 °F63 %30.25 inESE (110°)4.6 mphClear
2:53 AM45.0 °F32.0 °F60 %30.24 inEast (100°)5.8 mphClear
3:53 AM45.0 °F33.1 °F63 %30.23 inESE (120°)5.8 mphClear
4:53 AM45.0 °F34.0 °F65 %30.22 inESE (110°)5.8 mphClear
5:53 AM46.9 °F34.0 °F61 %30.25 inSE (130°)4.6 mphClear
6:53 AM48.0 °F35.1 °F61 %30.27 inSSE (160°)5.8 mphClear
7:53 AM43.0 °F35.1 °F74 %30.29 inCalmClear
8:53 AM53.1 °F43.0 °F69 %30.31 in10.0 miCalmClear
9:53 AM62.1 °F30.0 °F30 %30.33 in10.0 miSSW (200°)9.2 mphClear
10:53 AM63.0 °F34.0 °F34 %30.34 in10.0 miSouth (190°)9.2 mphClear
11:53 AM64.0 °F32.0 °F30 %30.33 in10.0 miSouth (190°)10.4 mphClear
12:53 PM64.9 °F32.0 °F29 %30.30 inSouth (190°)10.4 mphClear
1:53 PM64.9 °F34.0 °F32 %30.28 in10.0 miSouth (190°)13.8 mphClear
2:53 PM64.9 °F33.1 °F31 %30.25 in10.0 miSouth (180°)11.5 mphClear
3:53 PM64.0 °F35.1 °F34 %30.25 in10.0 miSouth (190°)10.4 mphClear
4:53 PM64.0 °F33.1 °F31 %30.25 in10.0 miSouth (170°)10.4 mphClear
5:53 PM62.1 °F34.0 °F35 %30.25 in10.0 miSouth (170°)9.2 mphClear
6:53 PM59.0 °F39.9 °F49 %30.26 in10.0 miSSE (160°)8.1 mphClear
7:53 PM57.9 °F42.1 °F56 %30.27 in10.0 miSSE (160°)8.1 mphClear
8:53 PM57.0 °F44.1 °F62 %30.30 in10.0 miSSE (160°)6.9 mphClear
9:53 PM54.0 °F44.1 °F69 %30.31 in10.0 miSSE (160°)5.8 mphClear
10:53 PM51.8 °F42.8 °F71 %30.31 in10.0 miSSE (150°)8.1 mphClear
11:53 PM53.1 °F45.0 °F74 %30.31 in10.0 miSE (140°)4.6 mphClear
Hourly data recorded from KPSX, located miles away from Seadrift, Texas







STORIES FROM OUR PARTNERS